KLM14G EHAM-EKYT

Flight info

Callsign KLM14G
Flight time 1h 6m
Altitude 31000
Route ANDIK N873 KEKIX Z708 AGISU DCT TUSKA DCT GIPUG
Aircraft E170/M-SDE3GILORVW/S

Departure

Time 2026-04-28 17:50
Airport Amsterdam Airport Schiphol (EHAM)

Arrival

Time 2026-04-28 18:57
Airport Aalborg Airport (EKYT)
Time Latitude Longitude Altitude Speed Heading
2026-04-28 17:15 52.30472 4.76578 1 ft 0 kts 59°
2026-04-28 17:28 52.30471 4.76577 1 ft 0 kts 59°
2026-04-28 17:31 52.30465 4.76561 1 ft 2 kts 51°
2026-04-28 17:31 52.30446 4.76526 1 ft 2 kts 81°
2026-04-28 17:32 52.30456 4.76493 2 ft 1 kts 141°
2026-04-28 17:32 52.30458 4.76491 2 ft 0 kts 140°
2026-04-28 17:36 52.30445 4.76502 1 ft 4 kts 157°
2026-04-28 17:36 52.30407 4.76534 0 ft 7 kts 146°
2026-04-28 17:36 52.30356 4.76589 -1 ft 9 kts 162°
2026-04-28 17:36 52.30299 4.76528 -3 ft 11 kts 235°
2026-04-28 17:37 52.30259 4.76426 -1 ft 10 kts 238°
2026-04-28 17:37 52.30219 4.76320 -1 ft 11 kts 238°
2026-04-28 17:37 52.30172 4.76200 -2 ft 13 kts 238°
2026-04-28 17:37 52.30121 4.76069 0 ft 13 kts 238°
2026-04-28 17:38 52.30072 4.75938 -1 ft 14 kts 238°
2026-04-28 17:38 52.30016 4.75792 -2 ft 15 kts 238°
2026-04-28 17:38 52.29954 4.75631 -2 ft 17 kts 238°
2026-04-28 17:38 52.29892 4.75468 -1 ft 17 kts 237°
2026-04-28 17:39 52.29831 4.75289 -2 ft 18 kts 262°
2026-04-28 17:39 52.29880 4.75122 0 ft 16 kts 311°
2026-04-28 17:39 52.30032 4.74841 0 ft 17 kts 312°
2026-04-28 17:40 52.30118 4.74680 -4 ft 20 kts 311°
2026-04-28 17:40 52.30219 4.74495 -8 ft 22 kts 310°
2026-04-28 17:40 52.30315 4.74315 -12 ft 21 kts 311°
2026-04-28 17:40 52.30417 4.74191 -13 ft 16 kts
2026-04-28 17:41 52.30528 4.74202 -12 ft 15 kts
2026-04-28 17:41 52.30640 4.74211 -12 ft 16 kts
2026-04-28 17:41 52.30751 4.74221 -10 ft 15 kts
2026-04-28 17:41 52.30854 4.74231 -8 ft 14 kts
2026-04-28 17:42 52.30952 4.74244 -6 ft 13 kts
2026-04-28 17:42 52.31043 4.74249 -5 ft 13 kts
2026-04-28 17:42 52.31141 4.74257 -5 ft 14 kts
2026-04-28 17:42 52.31248 4.74267 -5 ft 16 kts
2026-04-28 17:43 52.31364 4.74277 -5 ft 17 kts
2026-04-28 17:43 52.31494 4.74291 -8 ft 19 kts
2026-04-28 17:43 52.31636 4.74303 -9 ft 21 kts
2026-04-28 17:43 52.31791 4.74317 -9 ft 22 kts
2026-04-28 17:44 52.31949 4.74331 -9 ft 22 kts
2026-04-28 17:44 52.32031 4.74252 -9 ft 14 kts 271°
2026-04-28 17:44 52.32035 4.74085 -9 ft 14 kts 274°
2026-04-28 17:44 52.32043 4.73912 -8 ft 14 kts 274°
2026-04-28 17:45 52.32048 4.73754 -5 ft 13 kts 273°
2026-04-28 17:45 52.32053 4.73596 -5 ft 14 kts 273°
2026-04-28 17:45 52.32062 4.73426 -6 ft 15 kts 287°
2026-04-28 17:45 52.32135 4.73291 -7 ft 16 kts 319°
2026-04-28 17:46 52.32229 4.73158 -9 ft 18 kts 319°
2026-04-28 17:46 52.32331 4.73015 -9 ft 19 kts 319°
2026-04-28 17:46 52.32437 4.72864 -9 ft 20 kts 319°
2026-04-28 17:46 52.32545 4.72712 -7 ft 20 kts 320°
2026-04-28 17:47 52.32655 4.72559 -6 ft 20 kts 319°
2026-04-28 17:47 52.32746 4.72395 -5 ft 17 kts 311°
2026-04-28 17:47 52.32826 4.72248 -5 ft 17 kts 308°
2026-04-28 17:47 52.32841 4.72127 -6 ft 16 kts 266°
2026-04-28 17:48 52.32881 4.71887 -6 ft 18 kts 311°
2026-04-28 17:48 52.32971 4.71724 -9 ft 20 kts 310°
2026-04-28 17:48 52.33064 4.71549 -9 ft 21 kts 311°
2026-04-28 17:48 52.33164 4.71365 -9 ft 22 kts 310°
2026-04-28 17:49 52.33268 4.71176 -9 ft 22 kts 311°
2026-04-28 17:49 52.33369 4.70992 -9 ft 21 kts 316°
2026-04-28 17:49 52.33471 4.70939 -9 ft 18 kts
2026-04-28 17:49 52.33831 4.70974 -9 ft 85 kts
2026-04-28 17:50 52.34611 4.71043 -7 ft 137 kts
2026-04-28 17:50 52.35583 4.71124 455 ft 141 kts
2026-04-28 17:50 52.36552 4.71273 978 ft 147 kts 15°
2026-04-28 17:50 52.37619 4.71401 1463 ft 163 kts 11°
2026-04-28 17:51 52.38855 4.71497 1845 ft 191 kts 11°
2026-04-28 17:51 52.40242 4.71609 2402 ft 210 kts 10°
2026-04-28 17:51 52.41739 4.71734 3137 ft 222 kts 10°
2026-04-28 17:51 52.43337 4.71877 3685 ft 243 kts
2026-04-28 17:52 52.45079 4.72040 4355 ft 259 kts
2026-04-28 17:52 52.46877 4.72208 5243 ft 264 kts
2026-04-28 17:52 52.50521 4.72556 7131 ft 266 kts
2026-04-28 17:53 52.52370 4.72743 8002 ft 268 kts 10°
2026-04-28 17:53 52.54032 4.73846 8766 ft 264 kts 44°
2026-04-28 17:53 52.55033 4.76331 9541 ft 265 kts 70°
2026-04-28 17:53 52.55622 4.79161 10275 ft 269 kts 71°
2026-04-28 17:54 52.56206 4.82103 10968 ft 275 kts 72°
2026-04-28 17:54 52.56796 4.85140 11559 ft 284 kts 72°
2026-04-28 17:54 52.57391 4.88237 12087 ft 294 kts 72°
2026-04-28 17:54 52.58199 4.91378 12564 ft 305 kts 53°
2026-04-28 17:55 52.59865 4.93565 13140 ft 314 kts 24°
2026-04-28 17:55 52.61907 4.94772 13809 ft 317 kts 26°
2026-04-28 17:55 52.63851 4.96442 14517 ft 319 kts 31°
2026-04-28 17:55 52.65755 4.98385 15227 ft 320 kts 34°
2026-04-28 17:56 52.67600 5.00408 15915 ft 322 kts 35°
2026-04-28 17:56 52.69434 5.02482 16585 ft 325 kts 35°
2026-04-28 17:56 52.71283 5.04599 17220 ft 328 kts 35°
2026-04-28 17:56 52.73170 5.06772 17867 ft 330 kts 35°
2026-04-28 17:57 52.75038 5.08931 18492 ft 333 kts 35°
2026-04-28 17:57 52.76928 5.11120 19133 ft 334 kts 35°
2026-04-28 17:57 52.78814 5.13306 19759 ft 336 kts 35°
2026-04-28 17:57 52.80725 5.15525 20348 ft 339 kts 35°
2026-04-28 17:58 52.82644 5.17754 20934 ft 341 kts 36°
2026-04-28 17:58 52.84597 5.20027 21525 ft 343 kts 36°
2026-04-28 17:58 52.86553 5.22305 22103 ft 345 kts 36°
2026-04-28 17:58 52.88511 5.24589 22672 ft 347 kts 36°
2026-04-28 17:59 52.90469 5.26875 23236 ft 349 kts 36°
2026-04-28 17:59 52.92459 5.29200 23796 ft 350 kts 35°
2026-04-28 17:59 52.94439 5.31516 24302 ft 352 kts 36°
2026-04-28 17:59 52.96443 5.33864 24819 ft 354 kts 36°
2026-04-28 18:00 52.98426 5.36190 25396 ft 353 kts 36°
2026-04-28 18:00 53.00449 5.38565 25973 ft 353 kts 36°
2026-04-28 18:00 53.02457 5.40925 26514 ft 353 kts 36°
2026-04-28 18:00 53.04460 5.43282 26973 ft 355 kts 37°
2026-04-28 18:01 53.06465 5.45645 27448 ft 356 kts 36°
2026-04-28 18:01 53.08477 5.48018 27942 ft 356 kts 37°
2026-04-28 18:01 53.10485 5.50390 28388 ft 357 kts 37°
2026-04-28 18:01 53.12525 5.52803 28835 ft 358 kts 37°
2026-04-28 18:02 53.14555 5.55206 29252 ft 360 kts 37°
2026-04-28 18:02 53.16591 5.57618 29647 ft 362 kts 37°
2026-04-28 18:02 53.18631 5.60040 30072 ft 363 kts 37°
2026-04-28 18:02 53.20675 5.62467 30475 ft 364 kts 37°
2026-04-28 18:03 53.22739 5.64923 30838 ft 366 kts 37°
2026-04-28 18:03 53.24807 5.67386 31187 ft 369 kts 37°
2026-04-28 18:03 53.26858 5.69831 31320 ft 366 kts 38°
2026-04-28 18:03 53.28966 5.72349 31342 ft 376 kts 37°
2026-04-28 18:04 53.33307 5.77541 31348 ft 395 kts 37°
2026-04-28 18:04 53.37810 5.82940 31338 ft 400 kts 37°
2026-04-28 18:05 53.41552 5.87438 31343 ft 399 kts 37°
2026-04-28 18:05 53.46798 5.93761 31343 ft 400 kts 37°
2026-04-28 18:06 53.51305 5.99210 31343 ft 399 kts 37°
2026-04-28 18:06 53.55770 6.04623 31345 ft 399 kts 37°
2026-04-28 18:07 53.60251 6.10067 31345 ft 399 kts 37°
2026-04-28 18:07 53.64720 6.15511 31341 ft 399 kts 37°
2026-04-28 18:08 53.69197 6.20982 31341 ft 398 kts 37°
2026-04-28 18:08 53.73688 6.26484 31350 ft 399 kts 37°
2026-04-28 18:09 53.78135 6.31947 31362 ft 398 kts 36°
2026-04-28 18:09 53.82592 6.37437 31372 ft 397 kts 36°
2026-04-28 18:10 53.87069 6.42964 31376 ft 397 kts 36°
2026-04-28 18:10 53.91512 6.48467 31368 ft 400 kts 36°
2026-04-28 18:11 53.95985 6.54021 31367 ft 399 kts 36°
2026-04-28 18:11 54.00458 6.59591 31372 ft 399 kts 36°
2026-04-28 18:12 54.04918 6.65159 31375 ft 398 kts 37°
2026-04-28 18:12 54.09348 6.70705 31381 ft 397 kts 37°
2026-04-28 18:13 54.13796 6.76288 31389 ft 398 kts 37°
2026-04-28 18:13 54.18240 6.81882 31389 ft 397 kts 37°
2026-04-28 18:14 54.22666 6.87468 31389 ft 396 kts 37°
2026-04-28 18:14 54.27069 6.93040 31390 ft 395 kts 37°
2026-04-28 18:15 54.31486 6.98646 31386 ft 397 kts 36°
2026-04-28 18:15 54.35869 7.04223 31388 ft 396 kts 36°
2026-04-28 18:16 54.40264 7.09830 31379 ft 395 kts 36°
2026-04-28 18:16 54.44672 7.15471 31375 ft 396 kts 36°
2026-04-28 18:17 54.49048 7.21084 31382 ft 394 kts 36°
2026-04-28 18:17 54.53444 7.26740 31380 ft 394 kts 36°
2026-04-28 18:18 54.57796 7.32355 31380 ft 394 kts 36°
2026-04-28 18:18 54.61449 7.37079 31387 ft 394 kts 36°
2026-04-28 18:19 54.66563 7.43710 31382 ft 394 kts 36°
2026-04-28 18:19 54.70961 7.49433 31390 ft 395 kts 36°
2026-04-28 18:20 54.75333 7.55134 31392 ft 393 kts 36°
2026-04-28 18:20 54.79687 7.60829 31396 ft 394 kts 36°
2026-04-28 18:21 54.84055 7.66559 31400 ft 394 kts 36°
2026-04-28 18:21 54.88407 7.72282 31399 ft 395 kts 36°
2026-04-28 18:22 54.92760 7.78024 31394 ft 394 kts 36°
2026-04-28 18:22 54.97121 7.83791 31395 ft 394 kts 36°
2026-04-28 18:23 55.01675 7.89001 31398 ft 393 kts 24°
2026-04-28 18:23 55.06712 7.92624 31399 ft 394 kts 23°
2026-04-28 18:24 55.10929 7.95751 31403 ft 394 kts 24°
2026-04-28 18:24 55.16786 8.00130 31411 ft 393 kts 24°
2026-04-28 18:25 55.21754 8.03857 31407 ft 392 kts 24°
2026-04-28 18:26 55.29245 8.09497 31409 ft 391 kts 24°
2026-04-28 18:26 55.34255 8.13282 31409 ft 393 kts 24°
2026-04-28 18:27 55.39240 8.17059 31412 ft 391 kts 24°
2026-04-28 18:27 55.44205 8.20830 31405 ft 391 kts 24°
2026-04-28 18:28 55.49187 8.24625 31408 ft 391 kts 24°
2026-04-28 18:28 55.54169 8.28431 31402 ft 391 kts 23°
2026-04-28 18:29 55.59127 8.32228 31399 ft 390 kts 24°
2026-04-28 18:29 55.64085 8.36037 31403 ft 389 kts 23°
2026-04-28 18:30 55.68995 8.39818 31066 ft 380 kts 24°
2026-04-28 18:30 55.70607 8.41062 30709 ft 373 kts 23°
2026-04-28 18:30 55.73715 8.43463 30075 ft 365 kts 23°
2026-04-28 18:30 55.76018 8.45245 29582 ft 363 kts 23°
2026-04-28 18:31 55.78331 8.47037 29090 ft 363 kts 24°
2026-04-28 18:31 55.80620 8.48813 28598 ft 361 kts 23°
2026-04-28 18:31 55.82896 8.50582 28107 ft 359 kts 24°
2026-04-28 18:31 55.85182 8.52359 27611 ft 355 kts 23°
2026-04-28 18:32 55.87437 8.54116 27117 ft 353 kts 23°
2026-04-28 18:32 55.89655 8.55845 26630 ft 352 kts 24°
2026-04-28 18:32 55.91880 8.57582 26137 ft 349 kts 23°
2026-04-28 18:32 55.94103 8.59320 25643 ft 348 kts 23°
2026-04-28 18:33 55.96322 8.61058 25154 ft 346 kts 23°
2026-04-28 18:33 55.98500 8.62764 24672 ft 345 kts 23°
2026-04-28 18:33 56.00676 8.64471 24190 ft 343 kts 23°
2026-04-28 18:33 56.02868 8.66194 23706 ft 341 kts 24°
2026-04-28 18:34 56.05021 8.67888 23239 ft 341 kts 24°
2026-04-28 18:34 56.07179 8.69587 22770 ft 338 kts 24°
2026-04-28 18:34 56.09309 8.71268 22303 ft 337 kts 23°
2026-04-28 18:34 56.11438 8.72948 21847 ft 335 kts 24°
2026-04-28 18:35 56.13577 8.74639 21395 ft 334 kts 24°
2026-04-28 18:35 56.15483 8.76917 20944 ft 336 kts 41°
2026-04-28 18:35 56.17195 8.79720 20525 ft 336 kts 38°
2026-04-28 18:35 56.18982 8.82421 20068 ft 334 kts 37°
2026-04-28 18:36 56.20760 8.85022 19626 ft 331 kts 37°
2026-04-28 18:36 56.22549 8.87606 19168 ft 330 kts 37°
2026-04-28 18:36 56.24339 8.90183 18680 ft 329 kts 36°
2026-04-28 18:36 56.26115 8.92736 18233 ft 329 kts 36°
2026-04-28 18:37 56.27885 8.95281 17773 ft 327 kts 36°
2026-04-28 18:37 56.29650 8.97822 17320 ft 325 kts 36°
2026-04-28 18:37 56.31399 9.00342 16865 ft 324 kts 36°
2026-04-28 18:37 56.33143 9.02858 16430 ft 322 kts 36°
2026-04-28 18:38 56.34887 9.05376 15979 ft 322 kts 36°
2026-04-28 18:38 56.36621 9.07886 15568 ft 321 kts 36°
2026-04-28 18:38 56.38360 9.10402 15108 ft 319 kts 36°
2026-04-28 18:38 56.40092 9.12912 14664 ft 318 kts 36°
2026-04-28 18:39 56.41789 9.15376 14199 ft 316 kts 36°
2026-04-28 18:39 56.43507 9.17871 13795 ft 315 kts 36°
2026-04-28 18:39 56.45199 9.20333 13370 ft 313 kts 37°
2026-04-28 18:39 56.46879 9.22781 12935 ft 311 kts 36°
2026-04-28 18:40 56.48546 9.25211 12478 ft 310 kts 37°
2026-04-28 18:40 56.50201 9.27627 12030 ft 305 kts 37°
2026-04-28 18:40 56.51833 9.30013 11575 ft 297 kts 36°
2026-04-28 18:40 56.53414 9.32327 11106 ft 288 kts 37°
2026-04-28 18:41 56.54932 9.34549 10642 ft 280 kts 37°
2026-04-28 18:41 56.56430 9.36746 10173 ft 273 kts 37°
2026-04-28 18:41 56.57875 9.38867 9710 ft 267 kts 37°
2026-04-28 18:41 56.59307 9.40971 9244 ft 263 kts 37°
2026-04-28 18:42 56.60721 9.43050 8778 ft 261 kts 37°
2026-04-28 18:42 56.62119 9.45108 8459 ft 259 kts 37°
2026-04-28 18:42 56.63512 9.47161 8185 ft 260 kts 37°
2026-04-28 18:42 56.64917 9.49232 7903 ft 260 kts 37°
2026-04-28 18:43 56.66307 9.51285 7627 ft 261 kts 37°
2026-04-28 18:43 56.67710 9.53359 7439 ft 258 kts 37°
2026-04-28 18:43 56.69100 9.55415 7425 ft 258 kts 37°
2026-04-28 18:43 56.70485 9.57467 7419 ft 259 kts 37°
2026-04-28 18:44 56.71878 9.59532 7416 ft 260 kts 37°
2026-04-28 18:44 56.74675 9.63685 7415 ft 260 kts 37°
2026-04-28 18:44 56.76079 9.65772 7405 ft 259 kts 38°
2026-04-28 18:45 56.77461 9.67829 7415 ft 260 kts 38°
2026-04-28 18:45 56.78865 9.69919 7417 ft 260 kts 38°
2026-04-28 18:45 56.80257 9.71995 7413 ft 259 kts 38°
2026-04-28 18:45 56.81643 9.74064 7410 ft 260 kts 38°
2026-04-28 18:46 56.83039 9.76150 7324 ft 260 kts 38°
2026-04-28 18:46 56.84435 9.78238 7192 ft 259 kts 38°
2026-04-28 18:46 56.85820 9.80312 6918 ft 259 kts 38°
2026-04-28 18:46 56.87211 9.82396 6643 ft 258 kts 38°
2026-04-28 18:47 56.88599 9.84479 6367 ft 256 kts 38°
2026-04-28 18:47 56.89957 9.86518 6111 ft 256 kts 38°
2026-04-28 18:47 56.91322 9.88569 5853 ft 255 kts 38°
2026-04-28 18:47 56.92688 9.90625 5592 ft 255 kts 38°
2026-04-28 18:48 56.94049 9.92674 5315 ft 254 kts 38°
2026-04-28 18:48 56.95410 9.94726 5063 ft 254 kts 38°
2026-04-28 18:48 56.96677 9.96967 4789 ft 256 kts 56°
2026-04-28 18:48 56.97432 9.99900 4545 ft 256 kts 65°
2026-04-28 18:49 56.98115 10.02902 4310 ft 256 kts 65°
2026-04-28 18:49 56.98576 10.04919 4142 ft 255 kts 65°
2026-04-28 18:49 56.99493 10.08892 3786 ft 254 kts 65°
2026-04-28 18:49 57.00172 10.11836 3517 ft 253 kts 65°
2026-04-28 18:50 57.00862 10.14817 3266 ft 253 kts 65°
2026-04-28 18:50 57.01544 10.17762 3035 ft 252 kts 65°
2026-04-28 18:50 57.02226 10.20714 3004 ft 251 kts 65°
2026-04-28 18:50 57.02906 10.23670 3006 ft 251 kts 65°
2026-04-28 18:51 57.03878 10.26245 2998 ft 247 kts 33°
2026-04-28 18:51 57.05455 10.27219 2992 ft 237 kts 358°
2026-04-28 18:51 57.06968 10.26302 2595 ft 234 kts 323°
2026-04-28 18:51 57.08156 10.24193 2087 ft 244 kts 315°
2026-04-28 18:52 57.09285 10.21993 2000 ft 229 kts 315°
2026-04-28 18:52 57.10339 10.19945 1976 ft 211 kts 315°
2026-04-28 18:52 57.11308 10.18007 1978 ft 204 kts 305°
2026-04-28 18:52 57.11624 10.15478 2029 ft 213 kts 262°
2026-04-28 18:53 57.11309 10.12801 2018 ft 215 kts 262°
2026-04-28 18:53 57.11089 10.10190 2024 ft 198 kts 264°
2026-04-28 18:53 57.10926 10.07827 1995 ft 171 kts 265°
2026-04-28 18:53 57.10793 10.05756 2024 ft 154 kts 266°
2026-04-28 18:54 57.10674 10.03850 1790 ft 144 kts 266°
2026-04-28 18:54 57.10558 10.02083 1491 ft 136 kts 266°
2026-04-28 18:54 57.10444 10.00364 1220 ft 136 kts 266°
2026-04-28 18:54 57.10335 9.98670 1020 ft 133 kts 266°
2026-04-28 18:55 57.10225 9.97011 840 ft 129 kts 267°
2026-04-28 18:55 57.10144 9.95406 676 ft 125 kts 267°
2026-04-28 18:55 57.10038 9.93821 546 ft 122 kts 264°
2026-04-28 18:55 57.09942 9.92297 440 ft 119 kts 265°
2026-04-28 18:56 57.09842 9.90792 323 ft 119 kts 265°
2026-04-28 18:56 57.09743 9.89276 209 ft 118 kts 265°
2026-04-28 18:56 57.09647 9.87772 69 ft 118 kts 265°
2026-04-28 18:56 57.09571 9.86451 13 ft 63 kts 265°
2026-04-28 18:57 57.09534 9.85839 13 ft 31 kts 264°
2026-04-28 18:57 57.09476 9.85710 13 ft 11 kts 158°
2026-04-28 18:57 57.09410 9.85791 13 ft 12 kts 142°
2026-04-28 18:57 57.09340 9.85891 13 ft 13 kts 143°
2026-04-28 18:58 57.09262 9.85998 13 ft 14 kts 143°
2026-04-28 18:58 57.09178 9.86117 13 ft 15 kts 142°
2026-04-28 18:58 57.09087 9.86244 13 ft 17 kts 142°
2026-04-28 18:58 57.08990 9.86382 12 ft 18 kts 143°
2026-04-28 18:59 57.08882 9.86537 11 ft 20 kts 142°
2026-04-28 18:59 57.08765 9.86706 10 ft 21 kts 141°
2026-04-28 18:59 57.08679 9.86840 13 ft 12 kts 138°
2026-04-28 18:59 57.08610 9.86957 13 ft 14 kts 135°
2026-04-28 19:00 57.08557 9.87054 14 ft 9 kts 135°
2026-04-28 19:00 57.08523 9.87128 15 ft 5 kts 88°
2026-04-28 19:00 57.08538 9.87175 16 ft 3 kts 57°
2026-04-28 19:00 57.08544 9.87191 16 ft 0 kts 56°